Wind_Speed
28 12 10 16 19 28 27 29 20 23 19 9 8 10 11 14 12 14 14 12 14 14 14 21 23 28 33 36 33 31 32 31 29 24 19 19 18 19 19 15 12 7 3 1
24 12 20 14 10 28 33 28 27 15 13 9 11 5 5 10 11 14 14 17 17 17 16 18 28 32 32 35 39 34 32 28 25 24 24 23 22 20 18 14 9 4 3 2
26 19 8 17 35 16 18 28 28 24 18 7 9 8 10 8 14 16 15 16 14 14 15 25 29 30 28 29 27 27 29 30 29 27 24 21 17 12 7 8 6 3 3 4
4 7 20 19 9 29 22 18 20 20 11 15 13 14 11 8 10 10 14 16 16 15 13 17 21 26 29 32 32 35 33 29 26 24 20 15 11 9 3 3 3 3 1 2
7 14 5 12 10 22 18 30 13 16 11 14 16 5 2 2 5 8 9 6 6 17 21 26 32 35 38 36 38 35 32 29 24 19 15 8 2 11 8 4 3 2 2 2
3 8 15 4 13 17 11 20 10 9 15 9 7 6 4 2 3 6 8 11 15 23 26 29 29 41 43 36 35 33 29 22 15 11 13 16 16 9 7 4 4 4 6 5
7 5 6 7 6 15 14 7 10 13 9 8 8 5 7 6 6 5 10 18 23 23 25 28 37 40 36 37 34 27 24 22 20 18 19 16 11 9 7 6 8 8 8 8
3 7 10 5 6 14 5 3 4 6 6 6 11 12 11 9 10 11 14 17 21 25 24 26 34 38 31 26 24 23 20 20 19 18 15 13 12 10 10 9 7 6 8 8
6 5 2 3 3 5 6 7 3 6 8 15 13 8 10 9 9 9 12 16 18 23 22 22 22 26 24 19 20 21 20 19 17 16 14 11 12 13 11 8 7 7 8 7
5 12 8 4 8 5 3 5 7 12 15 14 10 9 7 7 10 10 13 15 19 21 17 17 17 18 21 23 22 22 23 21 20 19 17 12 10 10 11 11 9 10 12 11
5 3 11 14 16 6 5 10 11 11 11 10 16 11 13 11 11 11 14 17 21 20 19 19 19 20 22 25 25 24 23 23 20 18 16 13 10 9 9 9 10 12 12 13
7 11 8 16 14 11 10 10 13 13 9 9 12 15 11 11 10 13 13 18 17 20 22 25 24 24 25 27 28 26 24 22 21 19 16 14 12 9 9 9 10 11 9 11
5 12 8 11 13 16 13 14 11 14 16 16 9 11 11 10 8 16 16 20 21 23 24 27 26 27 27 27 26 23 22 23 21 19 17 15 13 12 11 7 7 8 8 9
8 12 11 15 12 15 19 15 13 10 10 12 11 13 10 8 12 14 14 21 23 23 25 28 29 28 26 25 25 21 19 21 22 19 17 15 15 14 12 14 12 9 8 8
8 5 11 13 15 13 15 18 17 14 13 11 15 14 16 11 9 12 22 24 22 23 23 26 25 24 25 24 21 19 19 21 20 18 16 14 16 17 18 15 13 13 12 11
5 14 18 19 17 17 17 16 16 13 12 10 11 10 16 19 20 19 18 22 21 12 18 21 24 28 27 24 21 20 19 20 19 18 17 18 18 18 18 17 16 17 16 15
15 7 14 14 16 14 14 12 13 10 10 11 9 18 19 18 17 16 16 13 18 19 18 20 22 23 23 22 22 22 21 19 19 17 17 17 18 19 20 20 19 19 18 17
11 8 11 14 13 13 12 10 13 13 11 14 20 21 16 12 11 13 16 18 18 16 13 16 19 19 19 19 18 16 15 16 16 16 15 17 18 19 22 21 20 19 17 17
13 13 12 11 10 11 9 11 9 15 19 22 19 12 17 17 17 17 17 17 15 14 12 13 13 13 15 15 14 15 15 15 14 14 15 16 17 20 22 21 19 18 17 19
14 13 13 11 13 10 10 13 19 17 17 23 22 17 15 14 18 18 15 12 13 10 16 14 13 14 15 15 14 14 14 14 16 15 17 18 18 19 21 20 19 19 18 20
12 11 12 10 9 13 15 16 18 15 16 16 18 15 16 17 17 17 13 7 9 12 16 15 16 16 15 16 14 14 14 13 16 16 17 18 19 20 21 21 19 19 20 21
9 9 9 9 8 7 12 16 18 18 19 21 19 19 19 16 16 13 9 12 14 17 18 16 13 12 12 13 13 14 13 13 14 15 18 19 19 20 20 19 19 20 19 20
8 7 7 6 6 8 12 13 16 17 15 16 17 17 15 15 16 13 6 13 16 14 13 13 13 12 12 12 14 13 12 14 15 17 18 19 19 19 19 18 20 20 19 20
7 9 8 11 13 10 7 10 16 16 17 17 19 21 22 17 15 11 7 17 12 11 11 14 14 14 13 14 15 15 13 14 16 17 16 17 17 18 18 19 18 18 17 17
12 11 11 10 6 6 12 14 14 16 18 17 19 19 19 20 17 15 11 14 13 9 12 13 13 14 15 15 16 16 14 15 16 17 16 17 18 19 19 18 18 18 17 16
10 6 9 10 10 11 12 14 10 14 16 15 16 16 19 15 12 15 15 14 12 11 12 12 13 15 16 16 16 15 14 14 16 16 16 17 18 18 18 18 18 18 17 16
12 12 9 7 12 14 14 14 14 12 15 16 15 16 17 15 16 16 14 11 11 12 12 12 13 14 16 16 16 15 15 16 16 17 17 17 18 18 18 19 18 17 17 17
Wind_Direction
238 239 199 206 210 209 212 220 206 231 231 211 211 206 197 195 179 177 184 179 181 180 187 187 186 190 195 199 190 188 194 194 194 193 179 166 161 163 159 156 153 145 150 199
242 227 242 251 242 217 218 219 230 232 231 173 226 236 189 181 186 189 193 194 193 193 185 184 190 194 194 196 196 190 186 185 175 165 154 146 148 147 150 138 139 168 205 299
235 220 223 245 238 237 227 223 225 227 227 204 209 201 219 205 192 199 201 199 197 200 197 195 195 191 187 187 182 165 150 141 137 136 133 131 129 127 106 97 99 69 24 326
229 170 225 249 227 234 242 237 227 232 194 191 204 217 223 207 175 187 196 202 205 203 182 175 166 160 152 151 145 138 134 136 136 131 123 120 115 94 86 156 158 120 52 355
210 207 317 229 209 201 206 239 218 222 208 207 215 115 293 276 208 191 185 184 163 152 142 132 136 135 131 130 136 136 133 129 125 117 115 121 230 221 187 164 129 69 80 64
158 199 211 268 177 198 184 242 173 167 192 169 145 146 243 333 54 96 93 108 115 117 119 124 132 136 135 135 135 134 138 141 141 156 182 207 181 161 176 188 164 141 132 140
197 232 275 251 238 144 173 236 165 175 178 166 166 185 144 130 81 94 112 118 119 122 126 132 136 138 133 141 148 152 160 163 175 169 165 168 158 152 150 145 134 139 144 144
145 200 251 220 181 178 161 85 136 128 116 109 123 124 130 130 122 120 120 120 122 120 122 134 141 140 145 147 159 162 155 151 150 151 150 144 147 139 133 137 140 147 146 146
188 203 260 282 219 153 127 138 203 108 108 132 128 126 132 132 128 128 126 119 122 123 121 139 150 157 142 147 155 148 147 146 142 137 138 140 137 135 144 156 165 172 175 173
128 224 179 86 336 3 93 126 112 123 137 140 132 141 135 136 138 128 127 126 127 125 120 125 144 153 155 156 158 156 146 143 140 140 137 135 136 155 166 175 192 199 194 196
193 136 144 168 182 168 95 102 105 124 140 147 144 153 149 149 144 141 138 141 144 144 145 145 155 157 163 164 163 155 150 148 148 149 153 152 161 167 189 205 214 219 222 210
198 179 162 178 172 158 142 148 147 135 130 147 152 151 155 152 147 143 146 153 152 154 151 157 164 166 168 170 170 163 153 157 158 160 165 167 168 179 200 225 226 224 226 231
174 156 152 149 161 154 150 153 148 146 151 150 160 147 153 144 132 137 144 159 161 169 163 161 168 170 174 173 174 168 159 161 165 168 171 173 181 186 177 177 184 193 201 210
148 118 126 156 168 159 142 143 124 121 130 142 141 141 129 123 129 129 132 144 160 170 174 174 175 177 176 173 171 165 163 168 171 175 181 185 198 199 203 187 168 161 171 182
173 104 147 130 130 135 134 129 129 130 127 120 124 124 124 117 105 100 139 145 144 140 147 165 169 171 172 172 170 167 168 171 179 180 186 196 202 208 208 189 179 165 160 161
145 137 142 145 144 137 134 130 125 128 124 121 121 112 110 110 107 110 128 154 144 149 150 156 165 169 173 176 173 172 179 178 178 184 192 199 203 202 196 187 184 183 181 178
122 115 126 125 132 134 135 134 131 127 121 119 114 115 112 104 97 98 108 136 157 153 155 161 164 170 176 180 178 176 177 184 193 194 194 201 196 190 193 188 187 189 193 195
102 104 123 132 133 123 122 121 122 126 123 119 120 117 116 113 121 122 118 122 122 126 135 152 156 162 174 176 178 185 192 187 188 195 198 192 191 197 192 192 191 188 195 197
87 91 85 86 105 106 112 118 110 115 125 132 125 116 119 120 132 133 130 125 130 129 147 153 158 165 170 181 188 186 186 186 196 199 194 187 188 194 191 192 192 193 196 194
81 74 73 71 61 97 102 102 114 112 122 124 118 114 118 123 130 132 138 135 156 159 156 160 169 175 179 181 184 183 190 197 195 189 189 189 186 191 195 194 193 198 202 201
90 83 88 91 82 86 101 114 121 122 131 130 125 127 131 135 140 140 129 126 150 161 162 164 170 174 179 180 186 187 187 185 189 194 195 192 192 194 197 195 197 202 206 208
97 97 100 109 103 91 99 114 113 121 126 126 124 129 127 123 134 141 147 153 161 165 165 165 174 179 185 189 189 189 189 193 199 197 194 195 194 193 194 198 202 206 212 208
108 103 101 108 112 115 129 139 146 140 135 137 134 134 134 143 149 138 131 163 159 165 172 174 171 176 179 186 189 189 192 197 200 200 201 201 201 203 202 204 205 208 209 209
114 128 136 134 137 137 143 150 149 154 149 148 151 152 151 149 153 157 135 158 162 170 186 187 179 180 182 186 196 196 197 202 205 204 203 203 206 207 205 203 206 208 207 211
138 136 140 147 146 152 153 151 142 139 139 145 151 156 166 165 153 156 154 165 168 179 190 191 190 188 193 197 202 198 201 206 207 205 204 209 210 209 207 207 210 209 209 216
139 145 151 163 157 150 141 141 137 143 141 138 142 163 174 172 163 162 160 164 171 180 185 190 193 195 199 202 203 199 205 211 210 210 212 213 212 212 213 213 213 213 212 216
137 151 154 145 146 149 148 146 144 145 146 150 146 154 160 164 162 158 159 166 176 190 189 194 200 203 204 204 205 209 214 213 214 212 214 217 216 218 218 217 215 215 213 217
Height
682 687 686 688 695 696 702 694 716 700 707 705 702 699 697 693 698 703 707 712 717 722 726 731 736 740 744 749 754 757 762 768 773 778 782 784 787 790 793 797 800 805 807 809
690 691 687 694 690 682 681 685 692 695 696 691 690 689 693 693 697 698 701 704 708 711 717 723 727 730 735 741 747 753 758 763 769 775 778 781 786 791 792 792 797 800 803 807
684 688 697 703 666 682 677 673 676 691 680 687 687 689 689 688 688 692 694 697 701 705 709 712 717 723 730 737 744 752 758 765 770 775 780 784 789 794 798 795 798 802 802 805
693 694 700 660 663 662 669 666 667 669 675 678 678 677 678 678 684 687 687 689 692 695 702 708 714 722 729 736 746 753 760 766 772 776 781 787 793 793 799 798 800 799 801 802
683 684 678 663 659 656 664 655 658 661 667 666 667 678 679 677 676 675 679 684 688 691 698 706 714 722 729 740 746 753 761 767 772 777 784 789 789 793 795 799 798 798 801 803
695 676 669 653 641 641 650 663 653 655 657 663 672 691 687 676 676 679 682 685 690 696 702 708 716 719 727 739 748 756 762 766 770 774 780 784 787 787 793 796 797 798 802 804
681 673 663 649 634 634 668 655 639 642 651 659 666 667 672 684 685 685 685 688 694 700 705 712 718 723 733 742 750 756 759 761 768 769 776 782 784 788 792 797 799 801 802 803
675 670 662 636 635 641 636 638 638 640 646 659 664 671 678 683 686 687 688 694 698 703 712 719 724 729 737 743 748 751 755 763 770 772 776 780 785 789 794 798 801 804 806 807
657 657 641 634 630 631 632 639 641 638 651 657 666 673 678 686 690 692 693 698 703 707 716 723 727 730 737 745 749 754 762 768 771 774 778 782 785 790 796 799 801 804 806 807
649 639 639 635 632 627 633 636 642 642 652 659 670 680 685 688 691 693 696 701 706 712 720 726 730 734 739 746 751 757 763 767 771 775 780 784 787 791 795 798 802 804 804 805
629 625 633 631 628 635 639 639 644 650 654 662 670 679 680 686 690 693 697 703 708 713 720 727 733 737 742 746 752 759 764 768 772 776 781 785 788 791 794 796 798 802 803 804
616 615 613 619 624 629 636 641 646 652 664 668 668 675 683 687 687 691 699 706 710 714 719 727 732 737 741 746 752 756 761 767 771 776 780 783 787 791 794 796 797 799 802 804
601 602 607 615 622 623 634 640 646 651 656 665 674 675 682 686 687 693 699 705 709 714 717 723 730 737 742 746 750 753 758 765 769 774 778 781 786 789 792 794 796 798 800 802
598 599 614 614 621 626 629 638 647 656 661 666 671 679 681 685 690 695 699 703 709 712 716 723 729 735 739 744 748 751 756 762 767 772 776 779 784 788 791 794 795 797 799 801
598 595 598 608 620 630 633 638 650 658 664 671 674 676 681 686 691 697 702 707 713 712 715 723 727 734 738 743 746 750 755 761 767 771 775 777 781 784 787 792 795 797 799 801
604 605 607 613 622 628 635 643 652 660 665 671 676 679 684 690 692 698 703 709 711 716 718 720 726 729 735 741 745 750 756 761 766 768 771 775 778 781 785 789 793 796 798 800
610 619 616 621 625 632 638 645 651 660 666 671 678 681 688 692 697 703 707 711 712 714 716 720 726 730 736 742 745 749 754 758 763 765 768 772 774 778 783 787 790 793 796 798
605 612 615 620 628 635 643 650 654 661 668 672 679 683 691 695 701 709 710 711 714 717 720 723 729 733 738 741 746 749 754 757 761 764 766 769 773 776 780 784 788 791 794 797
615 620 625 629 631 636 643 649 656 662 670 677 683 689 692 697 703 708 710 713 718 721 724 726 730 736 739 744 747 749 753 757 760 762 764 768 771 775 779 782 785 788 791 795
625 631 635 640 644 644 650 657 661 668 674 677 684 688 694 701 703 706 711 715 718 721 724 729 733 737 741 744 747 749 753 757 759 760 763 766 770 773 777 780 783 786 789 793
635 642 649 653 656 656 654 659 663 670 678 681 684 688 696 701 703 707 711 715 719 722 726 730 733 737 739 742 746 749 752 755 758 759 762 765 769 772 775 778 781 784 787 791
642 647 653 658 660 663 663 665 667 672 679 683 689 693 695 699 703 709 712 716 721 725 728 730 734 737 740 743 745 748 749 752 756 759 761 764 767 770 773 776 778 781 785 788
650 653 657 660 662 665 669 673 675 677 682 686 687 690 695 701 705 709 715 718 721 725 728 731 733 737 741 742 745 747 749 752 755 758 760 763 765 768 771 774 776 779 782 785
654 658 663 666 669 670 672 677 677 678 681 685 690 694 698 703 708 711 713 717 721 724 729 732 733 735 738 741 744 746 748 751 754 757 759 762 764 766 769 772 774 777 780 783
658 663 665 667 668 670 674 675 678 680 683 689 693 696 700 705 706 710 713 717 721 725 727 730 732 734 737 739 742 745 747 750 753 755 758 760 761 764 767 769 772 774 777 780
656 660 663 665 667 670 672 675 679 682 684 689 693 696 700 704 707 710 714 717 720 723 726 729 730 732 735 737 740 743 746 748 751 753 755 757 759 762 764 767 769 772 774 777
654 658 663 666 668 670 673 676 679 683 685 688 691 696 700 704 707 710 713 717 719 723 725 728 730 731 733 736 739 742 744 746 749 751 753 755 757 759 761 764 766 769 771 774